Temperature
18 19 19 19 18 18 18 18 18 18 18 18 18 18 18 18 18 18 18 18 18 18 18 18 18 18 18 18 18 18 18 18 18 18 18 18 18 18 18 18 18 18 18
18 19 19 19 18 18 18 18 18 18 18 18 18 18 18 18 18 18 18 18 18 18 17 17 18 18 18 18 18 18 18 18 18 18 18 18 18 18 18 18 18 18 18
18 18 19 18 18 18 18 18 18 18 18 18 18 18 18 18 18 18 18 17 17 17 17 17 17 18 18 18 18 18 18 17 17 17 17 17 18 18 18 18 18 18 18
18 18 18 18 18 18 18 18 18 18 18 18 18 17 18 18 17 17 17 17 17 17 17 17 17 17 18 18 18 18 17 17 17 17 17 17 17 17 17 17 17 17 17
18 18 18 18 18 18 18 18 18 18 17 17 17 17 17 17 17 17 17 17 17 17 17 17 17 17 17 17 18 17 17 17 17 17 17 17 17 17 17 17 17 17 17
18 18 18 18 18 18 18 18 18 18 17 17 17 17 17 17 17 17 17 17 17 17 17 17 17 17 17 17 17 17 17 17 17 17 17 17 17 17 17 17 17 17 17
18 18 18 18 18 18 18 18 18 17 17 17 17 17 17 17 17 17 17 17 17 17 17 17 17 17 17 17 17 17 17 17 17 16 16 17 17 17 17 17 17 17 17
18 18 18 18 18 18 18 18 17 17 17 18 18 17 17 17 17 17 17 17 17 17 17 17 17 17 17 17 17 17 17 16 16 16 16 16 16 16 16 16 16 17 17
18 18 18 18 18 18 18 18 18 17 17 17 17 17 17 17 17 17 17 17 17 17 17 17 17 17 17 17 17 17 16 16 16 16 16 16 16 16 16 16 16 16 16
19 18 18 18 18 18 18 18 18 18 17 17 17 17 17 17 17 17 17 17 17 17 17 17 17 17 17 17 17 16 16 16 16 16 16 16 16 16 16 16 16 16 16
19 18 18 18 18 18 18 18 18 18 17 17 17 17 17 17 17 17 17 17 17 17 17 17 17 16 16 16 16 16 16 16 16 16 16 16 16 16 16 16 16 16 16
19 18 18 18 18 18 18 18 17 17 17 17 17 17 17 17 17 16 17 17 17 16 16 16 16 16 16 16 16 16 16 16 16 16 16 16 16 16 16 16 16 16 16
19 19 19 18 18 18 18 18 17 17 17 17 17 17 17 17 17 17 17 16 16 16 16 16 16 16 16 16 16 16 16 16 16 16 16 16 16 16 16 15 15 15 15
19 19 19 19 18 18 18 18 18 17 17 17 17 17 17 17 17 17 16 16 16 16 16 16 16 16 16 16 16 16 16 16 16 16 16 16 16 16 15 15 15 15 15
19 19 19 18 18 18 18 18 18 17 17 17 17 17 17 17 17 17 16 16 16 16 16 16 16 16 16 16 16 16 15 15 15 15 15 15 15 15 15 15 15 15 15
19 19 19 18 18 18 18 18 18 17 17 17 17 17 17 17 17 17 16 16 16 16 16 16 16 16 16 16 16 16 15 15 15 15 15 15 15 15 15 15 15 15 15
19 19 19 18 18 18 18 18 18 17 17 17 17 17 17 17 17 17 16 16 16 16 16 16 16 16 15 15 15 15 15 15 15 15 15 15 15 15 14 14 14 14 15
19 19 19 18 18 18 18 18 18 17 17 17 17 17 17 17 17 17 16 16 16 16 16 15 15 15 15 15 15 15 15 15 15 15 15 15 15 14 14 14 14 14 14
19 19 18 18 18 18 18 18 17 17 17 17 17 17 17 17 17 16 16 16 16 16 15 15 15 15 15 15 15 15 15 15 15 14 14 14 14 14 14 14 14 14 14
19 19 18 18 18 18 17 17 17 17 17 17 17 17 16 16 16 16 16 16 16 15 15 15 15 15 15 15 15 15 15 15 15 14 14 14 14 14 14 14 14 14 14
19 18 18 18 18 17 17 17 17 17 16 16 16 16 16 16 16 16 16 16 15 15 15 15 15 15 15 15 15 15 15 15 15 14 14 14 14 14 14 14 14 14 14
19 18 18 18 17 17 17 17 17 16 16 16 16 16 16 16 16 16 16 16 15 15 15 15 15 15 15 15 15 15 14 14 14 14 14 14 14 14 13 13 13 13 13
18 18 18 18 17 17 17 17 16 16 16 16 16 16 16 16 16 16 16 15 15 15 15 15 15 15 15 14 15 15 14 14 14 14 14 14 14 13 13 13 13 13 13
18 18 18 17 17 17 17 16 16 16 16 16 16 16 16 16 16 16 16 15 15 15 15 15 15 14 14 14 14 15 15 14 14 14 13 13 13 13 13 13 13 13 13
18 18 18 17 17 17 17 16 16 16 16 16 16 16 16 16 16 15 15 15 15 15 15 15 15 14 14 14 14 14 14 14 14 14 13 13 13 13 13 13 13 13 12
18 18 17 17 17 17 16 16 16 16 16 16 16 15 15 15 15 15 15 15 15 15 15 15 14 14 14 14 14 14 14 14 14 14 13 13 13 13 13 13 12 12 12
Wind_Speed
7 10 10 9 10 10 9 9 10 10 10 10 10 10 10 10 11 11 11 10 10 10 11 11 11 11 11 11 11 10 10 9 9 10 10 10 10 10 9 8 8 9 10
9 11 11 10 10 10 10 10 10 9 9 9 9 9 10 10 10 11 10 10 10 10 10 11 11 11 11 11 10 9 8 7 6 6 8 9 10 10 10 10 10 9 9
10 12 11 11 10 10 10 10 9 9 9 9 9 9 10 10 10 10 10 10 10 10 10 10 10 10 10 10 10 8 7 5 4 4 5 7 9 10 10 10 10 9 9
11 12 12 11 11 10 9 9 8 8 8 9 9 9 10 10 10 10 10 10 10 10 10 9 10 10 10 9 9 7 6 5 5 5 7 9 9 10 10 10 10 9 9
12 13 12 11 11 10 9 9 8 8 8 8 9 9 9 9 9 9 10 10 10 10 10 9 9 10 9 9 8 7 6 6 6 7 9 11 10 10 10 10 10 9 9
11 13 12 11 11 10 9 9 8 8 8 8 9 9 9 9 9 9 9 9 9 9 9 9 9 9 8 8 8 7 7 7 7 8 10 10 9 10 11 11 10 9 9
10 12 12 11 10 10 9 9 8 8 8 8 9 9 9 9 9 8 8 9 9 9 9 9 9 9 8 8 7 7 8 7 5 8 10 10 9 10 10 10 10 9 9
9 11 12 10 10 9 9 9 8 8 8 8 8 8 8 8 8 8 8 9 9 9 9 9 9 8 8 7 6 7 8 7 7 9 10 10 10 10 10 10 10 9 9
8 9 10 10 10 9 9 9 8 8 8 8 7 7 7 7 8 8 8 9 9 9 8 8 8 7 6 5 5 6 8 8 6 8 10 9 10 10 10 10 10 9 9
6 5 7 9 10 10 9 8 8 8 7 7 6 6 6 6 7 7 8 8 8 7 6 6 6 5 5 4 4 5 7 7 7 10 9 9 10 10 10 10 10 9 9
6 4 4 5 7 8 9 9 8 8 7 6 6 6 5 5 7 7 9 8 7 6 5 4 3 3 2 1 2 3 4 4 9 10 9 10 10 10 10 11 10 10 10
5 5 4 4 5 5 5 8 7 7 8 7 6 6 4 4 6 8 9 8 6 5 3 2 2 1 1 0 1 2 4 7 8 9 9 10 10 11 10 11 11 11 11
5 4 4 4 4 4 3 4 3 4 4 3 4 5 4 5 5 7 6 6 5 4 2 1 1 1 2 3 4 5 7 8 9 10 9 11 11 11 11 11 10 11 11
5 4 3 3 3 4 4 3 3 3 2 2 2 4 4 2 2 2 3 4 3 3 1 1 1 3 5 6 5 7 8 7 9 9 10 12 12 12 11 11 11 11 11
5 4 4 2 2 3 3 2 3 3 3 4 3 3 4 2 2 2 2 2 3 3 2 2 3 4 4 5 7 8 7 7 8 9 10 12 12 12 11 11 11 11 10
5 5 4 3 3 3 3 2 2 3 3 3 2 3 4 3 2 2 2 2 2 3 3 3 4 4 3 3 5 6 6 6 7 9 9 11 12 12 12 11 11 11 11
4 5 4 3 3 2 2 2 3 3 4 2 2 2 3 3 3 3 3 2 2 3 4 4 4 3 3 3 4 4 4 5 6 7 8 9 9 10 11 11 11 11 11
5 6 4 3 3 3 3 2 2 3 3 2 3 3 4 4 4 4 3 2 3 4 3 2 3 3 3 3 3 2 2 3 4 6 7 8 7 8 10 11 11 10 10
4 5 5 3 3 3 3 2 3 3 3 3 4 4 4 4 5 5 2 2 4 3 3 3 3 3 3 3 2 2 2 3 3 5 5 7 8 9 9 9 10 10 10
3 4 6 4 3 4 3 3 3 3 3 3 3 2 2 2 3 4 2 4 4 3 3 2 3 3 2 2 3 3 3 3 3 3 4 6 7 8 8 8 8 8 10
4 4 5 4 4 4 2 2 2 2 2 2 1 2 2 1 2 3 2 3 3 3 2 2 3 3 2 2 3 3 3 4 4 3 3 4 5 7 7 7 7 7 8
4 4 4 4 3 5 3 3 3 2 2 2 1 2 2 2 2 3 3 3 3 3 2 3 3 2 0 1 1 2 1 3 3 3 2 3 3 5 5 7 8 8 8
4 3 3 3 4 5 4 3 3 2 1 2 1 1 1 2 3 3 4 3 3 3 2 2 3 2 0 1 1 1 1 1 1 2 3 3 3 3 3 6 7 8 9
4 3 3 3 4 4 4 3 3 3 2 1 1 1 0 1 2 2 3 3 3 3 3 3 3 2 2 0 1 1 1 2 2 0 2 2 3 3 3 4 5 7 9
4 4 3 3 4 4 4 3 2 2 1 1 2 1 1 1 1 2 2 2 2 2 2 2 2 1 1 1 0 1 1 0 1 2 1 0 1 1 2 3 4 6 8
5 4 3 3 3 3 3 3 2 3 2 2 2 1 1 1 1 1 2 2 2 2 2 2 2 2 0 0 0 1 1 1 1 1 1 1 1 1 2 2 3 5 7
Wind_Direction
93 93 86 83 83 78 75 75 75 77 75 77 76 75 74 72 71 71 70 69 71 72 71 71 71 71 68 67 67 70 72 73 76 78 79 74 69 63 57 60 74 76 83
102 99 91 87 85 81 77 76 74 73 77 78 77 76 79 76 75 71 69 68 68 71 73 74 71 71 70 68 67 67 67 69 73 78 81 76 70 65 62 63 71 79 82
104 105 96 90 87 84 81 78 75 73 76 78 79 78 80 79 75 72 69 70 70 71 73 74 71 70 70 69 66 63 58 51 46 46 68 87 76 66 67 69 73 77 80
98 96 93 92 90 88 87 84 80 79 81 83 83 82 80 77 73 71 71 71 71 71 73 73 71 70 70 69 64 57 45 35 20 33 62 69 68 70 68 69 69 72 76
96 95 97 95 96 95 94 90 86 86 89 90 88 85 83 78 72 73 72 72 71 74 75 73 72 72 71 66 56 46 33 24 20 52 68 72 70 74 71 69 68 70 73
102 102 105 101 99 96 94 92 90 89 89 92 91 87 85 79 74 73 73 72 72 74 76 73 73 71 68 62 50 35 22 25 41 63 67 72 73 73 71 67 67 68 70
107 109 113 111 107 102 101 98 96 95 93 90 90 88 88 83 80 77 77 76 74 74 75 76 75 71 66 59 45 25 14 18 64 79 75 71 73 74 72 67 67 67 66
108 110 116 120 120 114 109 103 99 101 100 97 97 96 98 96 90 85 82 80 78 77 77 77 77 74 68 57 38 20 13 21 64 84 83 75 76 76 73 69 69 67 67
106 118 127 135 133 126 118 114 112 113 112 109 110 113 115 114 106 99 93 88 82 80 78 79 81 75 69 56 34 18 17 28 42 67 79 75 77 77 74 71 70 67 68
109 114 127 139 140 139 135 132 128 129 130 131 134 135 138 136 130 120 106 100 93 87 85 87 86 81 72 50 24 18 23 28 55 70 74 75 78 78 75 74 73 70 70
106 99 107 124 130 135 137 141 148 148 152 155 158 167 167 164 145 130 115 115 107 102 99 100 101 102 92 50 6 17 23 65 74 71 72 77 81 80 77 75 74 74 74
126 125 120 115 121 130 130 142 160 157 165 179 169 164 180 137 114 116 124 129 133 135 138 166 192 211 211 154 7 14 39 63 75 75 71 78 83 81 78 75 73 72 73
127 126 125 125 131 130 124 136 133 136 158 160 137 141 129 109 121 134 142 147 163 166 170 160 190 135 84 68 72 73 61 61 70 74 70 80 83 81 79 76 73 71 71
127 135 117 114 131 130 128 124 136 140 130 115 99 114 111 101 100 117 128 144 150 128 95 97 75 58 59 58 61 69 68 67 76 80 73 80 82 80 79 78 76 74 73
130 131 123 115 106 96 103 131 133 125 126 123 120 115 116 118 115 113 110 112 101 104 100 69 64 59 54 45 53 60 65 69 78 86 82 84 80 76 76 79 79 76 74
138 140 127 131 112 114 136 152 134 118 116 107 107 127 129 127 120 110 106 92 92 87 79 83 81 73 63 57 53 54 53 63 77 88 97 92 84 80 74 75 76 76 74
128 118 115 128 128 121 106 113 107 108 102 103 92 67 86 109 113 103 97 96 98 97 83 75 72 70 66 67 63 62 56 56 72 86 99 99 93 85 79 76 75 73 72
124 116 116 112 103 89 80 80 81 85 85 77 68 53 44 53 81 99 98 99 90 92 91 85 71 64 56 46 46 51 62 64 68 83 91 95 96 92 87 82 76 72 69
116 118 121 105 103 93 82 87 80 80 72 65 62 55 40 43 57 81 98 96 90 86 83 85 74 78 72 63 49 51 66 68 66 70 79 90 95 101 100 94 84 72 65
122 121 122 115 114 104 89 81 78 65 62 68 78 76 64 54 71 91 105 96 88 85 79 77 74 74 80 72 63 52 64 78 72 60 71 76 84 94 98 100 99 81 68
129 123 122 128 131 116 112 108 103 94 82 64 73 78 79 85 110 103 97 97 100 99 109 102 89 78 77 80 78 48 38 54 74 69 66 77 74 78 89 94 96 94 84
127 124 126 139 138 123 122 120 123 114 110 108 74 68 38 50 91 117 118 111 109 112 111 105 100 86 100 83 106 104 55 23 27 58 74 82 86 79 75 81 85 86 82
137 140 132 143 138 131 131 114 111 100 81 84 79 71 19 85 88 99 116 116 132 138 144 143 131 135 185 309 20 92 123 145 19 10 53 70 73 70 64 75 79 83 83
131 135 129 129 120 116 118 121 135 142 139 141 132 126 159 92 101 118 115 119 140 144 147 170 155 154 151 230 335 4 97 135 128 62 10 50 75 82 73 72 72 79 83
129 122 122 121 116 123 123 115 136 124 134 132 124 138 104 86 96 106 119 128 146 140 143 138 122 128 169 183 106 29 44 36 127 156 175 359 37 73 98 97 87 84 90
122 121 123 126 112 119 130 142 149 124 132 123 120 143 149 148 140 125 120 129 140 148 151 157 148 152 185 36 271 165 172 149 141 136 158 161 143 92 80 92 108 102 100
Height
1523 1522 1522 1522 1522 1522 1523 1523 1524 1524 1524 1525 1525 1525 1526 1526 1526 1527 1527 1527 1527 1527 1527 1527 1527 1528 1528 1528 1528 1529 1529 1529 1530 1530 1530 1531 1531 1531 1531 1532 1532 1532 1532
1523 1522 1522 1523 1523 1523 1524 1524 1525 1525 1526 1526 1526 1527 1527 1528 1528 1528 1528 1529 1529 1529 1529 1529 1529 1529 1529 1529 1530 1530 1530 1531 1531 1531 1532 1532 1532 1532 1532 1532 1533 1533 1533
1524 1523 1523 1523 1524 1524 1525 1525 1526 1526 1527 1527 1528 1528 1529 1529 1529 1530 1530 1530 1530 1530 1530 1530 1530 1530 1530 1530 1531 1531 1532 1532 1532 1533 1533 1533 1533 1533 1533 1533 1534 1534 1534
1525 1524 1524 1524 1525 1525 1525 1526 1527 1527 1528 1528 1529 1529 1530 1530 1531 1531 1531 1531 1531 1532 1532 1532 1532 1532 1532 1532 1532 1532 1533 1533 1533 1534 1534 1534 1534 1534 1534 1534 1534 1534 1534
1525 1525 1525 1525 1526 1526 1526 1527 1528 1528 1529 1529 1530 1530 1531 1531 1532 1532 1532 1533 1533 1533 1533 1533 1533 1533 1533 1533 1533 1534 1534 1534 1534 1534 1534 1535 1535 1535 1534 1534 1535 1535 1535
1526 1526 1526 1526 1527 1527 1528 1528 1529 1529 1530 1531 1531 1532 1532 1533 1533 1534 1534 1534 1534 1534 1534 1535 1534 1535 1535 1535 1535 1535 1535 1535 1535 1535 1535 1535 1535 1535 1535 1535 1535 1535 1535
1527 1527 1527 1528 1528 1528 1529 1529 1530 1530 1531 1532 1532 1533 1534 1534 1535 1535 1535 1535 1535 1536 1536 1536 1536 1536 1536 1536 1536 1536 1536 1536 1536 1536 1536 1536 1536 1536 1536 1535 1535 1536 1536
1529 1529 1529 1529 1529 1530 1530 1531 1531 1532 1532 1533 1534 1534 1535 1535 1536 1536 1536 1536 1537 1537 1537 1537 1537 1537 1537 1538 1538 1538 1537 1537 1537 1537 1537 1537 1537 1536 1536 1536 1536 1536 1536
1530 1530 1530 1530 1531 1531 1532 1532 1532 1533 1534 1534 1535 1536 1536 1537 1537 1537 1537 1538 1538 1538 1538 1538 1539 1539 1539 1539 1539 1539 1539 1538 1538 1538 1538 1537 1538 1537 1537 1536 1536 1536 1536
1531 1531 1531 1531 1532 1532 1533 1533 1534 1534 1535 1536 1536 1537 1538 1538 1538 1538 1539 1539 1539 1539 1540 1540 1540 1540 1540 1540 1540 1540 1540 1539 1539 1539 1539 1539 1538 1538 1537 1537 1537 1537 1537
1532 1532 1533 1533 1533 1534 1534 1534 1535 1536 1536 1537 1538 1538 1539 1539 1539 1540 1540 1541 1541 1541 1541 1541 1541 1541 1541 1542 1542 1541 1541 1540 1540 1540 1540 1539 1539 1539 1538 1538 1538 1538 1538
1532 1533 1533 1534 1534 1535 1536 1536 1536 1537 1537 1538 1539 1540 1540 1541 1541 1541 1541 1542 1542 1542 1542 1542 1543 1543 1543 1543 1543 1543 1542 1542 1541 1541 1541 1540 1540 1540 1539 1539 1539 1539 1538
1532 1533 1534 1534 1535 1535 1536 1537 1537 1538 1539 1539 1540 1541 1541 1542 1542 1542 1542 1542 1543 1543 1543 1544 1544 1544 1544 1544 1544 1543 1543 1543 1542 1541 1541 1541 1541 1540 1540 1540 1540 1539 1539
1532 1533 1534 1534 1535 1536 1536 1537 1537 1538 1539 1540 1540 1541 1542 1542 1543 1543 1543 1543 1544 1544 1544 1544 1544 1545 1545 1545 1545 1544 1544 1543 1543 1543 1543 1542 1542 1541 1541 1541 1541 1541 1540
1532 1533 1533 1534 1535 1536 1536 1537 1538 1538 1539 1540 1541 1541 1542 1542 1543 1543 1544 1544 1544 1545 1545 1545 1545 1546 1546 1546 1546 1545 1545 1545 1545 1544 1544 1543 1543 1543 1542 1542 1542 1541 1541
1531 1532 1533 1534 1535 1535 1536 1537 1538 1539 1540 1540 1541 1542 1542 1543 1543 1543 1544 1544 1545 1545 1545 1545 1546 1546 1546 1546 1546 1546 1546 1546 1546 1545 1545 1544 1544 1544 1543 1543 1543 1543 1543
1531 1532 1533 1534 1534 1535 1536 1537 1538 1539 1540 1540 1541 1542 1542 1543 1543 1543 1544 1544 1544 1545 1545 1546 1546 1547 1547 1547 1547 1547 1547 1547 1547 1546 1546 1545 1545 1545 1545 1545 1544 1544 1544
1530 1531 1532 1533 1534 1535 1536 1537 1537 1538 1539 1540 1541 1541 1542 1543 1543 1543 1543 1544 1544 1545 1545 1546 1547 1547 1547 1547 1547 1547 1547 1547 1548 1548 1547 1547 1546 1546 1546 1546 1546 1545 1545
1530 1530 1531 1532 1533 1534 1535 1536 1537 1538 1539 1539 1540 1541 1541 1542 1542 1543 1543 1544 1544 1545 1546 1546 1547 1547 1547 1548 1548 1548 1548 1548 1548 1548 1548 1548 1548 1548 1547 1547 1547 1547 1546
1529 1530 1530 1531 1532 1533 1534 1535 1536 1537 1538 1539 1539 1540 1541 1541 1542 1542 1543 1544 1544 1545 1546 1546 1547 1548 1548 1548 1548 1549 1549 1549 1549 1549 1549 1549 1549 1549 1549 1548 1548 1548 1547
1528 1529 1530 1530 1531 1532 1533 1534 1535 1536 1537 1538 1539 1540 1540 1541 1541 1542 1542 1543 1544 1545 1546 1546 1547 1548 1548 1548 1549 1549 1550 1550 1550 1550 1550 1550 1550 1550 1550 1549 1549 1548 1548
1527 1528 1529 1530 1530 1531 1532 1533 1534 1536 1536 1537 1538 1539 1539 1540 1541 1541 1541 1543 1543 1544 1545 1546 1547 1547 1548 1549 1549 1549 1550 1552 1551 1552 1551 1551 1551 1551 1551 1550 1550 1549 1548
1526 1527 1528 1529 1530 1531 1532 1532 1534 1535 1536 1537 1537 1538 1539 1539 1540 1540 1541 1542 1543 1544 1545 1546 1546 1547 1548 1549 1549 1550 1550 1551 1552 1553 1552 1552 1552 1551 1551 1550 1550 1549 1549
1525 1526 1527 1528 1529 1530 1531 1532 1533 1534 1535 1536 1537 1537 1538 1539 1539 1540 1541 1541 1542 1543 1544 1545 1546 1547 1548 1548 1549 1550 1550 1550 1551 1552 1553 1552 1552 1552 1551 1551 1550 1549 1549
1524 1525 1526 1527 1528 1529 1530 1531 1532 1533 1534 1535 1536 1536 1537 1538 1539 1540 1540 1541 1542 1543 1543 1544 1545 1546 1547 1548 1548 1549 1549 1550 1550 1551 1551 1552 1552 1552 1551 1551 1550 1549 1549
1522 1524 1525 1526 1527 1528 1529 1530 1531 1532 1533 1534 1535 1536 1536 1537 1538 1539 1539 1540 1541 1542 1542 1543 1544 1545 1546 1547 1547 1548 1548 1549 1549 1549 1550 1550 1551 1551 1551 1550 1549 1549 1548